Location: Riverton
(43.0250°N, 108.3790°W)
Time: 09:58:29
(UTC-06:00)

Daily predictions for brighter satellites

Satellite Brightness Start Highest point End
(mag) Time Altitude Azimuth Time Altitude Azimuth Time Altitude Azimuth
Cosmos 2278 Rocket 2.6 20:57:56 10° S 21:03:10 40° ESE 21:08:26 10° NE
FENGYUN 3A 4.1 20:59:36 10° S 21:04:58 68° WSW 21:10:20 10° NNW
ALOS 3.0 21:02:33 10° S 21:07:08 57° W 21:11:45 10° NNW
Cosmos 1844 3.8 21:03:34 10° SSW 21:09:16 69° ESE 21:15:03 10° NNE
USA 186 2.7 21:07:17 10° S 21:10:23 50° W 21:13:39 10° NNW
Okean 2 Rocket 4.3 21:06:54 10° SE 21:10:24 23° E 21:13:54 10° NE
SL-08 ROCKET BODY 4.5 21:05:04 10° S 21:11:05 89° WNW 21:17:01 10° N
Cosmos 2074 Rocket 4.3 21:05:32 10° S 21:11:49 78° W 21:18:07 10° N
SJ-11-01 4.4 21:09:34 10° SSE 21:14:17 70° ENE 21:19:01 10° N
Cosmos 1782 Rocket 4.3 21:13:54 10° SSE 21:17:56 34° E 21:21:59 10° NNE
Envisat 3.3 21:13:24 10° SE 21:18:18 51° ENE 21:23:13 10° N
Resurs 01 Rocket 4.4 21:16:36 10° SW 21:19:19 16° W 21:22:02 10° NW
NOSS 5 (C) 4.2 21:17:37 10° SSW 21:21:01 83° SE 21:24:07 10° NE
Cosmos 2082 Rocket 3.3 21:16:49 10° N 21:21:51 31° NE 21:26:48 10° ESE
Sich 1 Rocket 3.7 21:19:07 10° S 21:23:42 86° E 21:28:19 10° N
Cosmos 2084 3.1 21:19:58 10° SW 21:23:50 86° ESE 21:27:41 10° NE
Coronas F rocket 4.3 21:22:52 10° SW 21:24:55 20° WNW 21:27:00 10° NNW
COSMOS 2487 2.6 21:21:30 10° NNW 21:25:07 63° ENE 21:28:41 10° SSE
Nadezhda 3 Rocket 4.1 21:22:01 10° N 21:28:25 73° E 21:34:46 10° SSE
ERS-1 Rocket 3.0 21:24:54 10° SSE 21:29:56 86° WSW 21:35:01 10° NNW
Cosmos 1420 Rocket 4.3 21:25:07 10° S 21:30:04 44° ESE 21:35:01 10° NNE
APEX 4.2 21:27:19 10° S 21:30:58 36° ESE 21:35:36 10° NE
Cosmos 1975 Rocket 3.4 21:27:23 10° N 21:31:34 46° ENE 21:35:39 11° SSE
Cosmos 407 Rocket 4.4 21:30:04 10° NNW 21:35:10 50° WSW 21:40:17 10° S
Cosmos 1140 Rocket 3.6 21:30:14 10° NNW 21:35:22 64° ENE 21:40:09 12° SSE
DNEPR-1 R/B 4.0 21:30:29 10° NNW 21:35:58 68° NE 21:39:53 14° SE
BREEZE-M TANK 4.5 21:12:04 10° W 21:36:30 80° N 21:41:07 10° ENE
ISS -3.0 21:35:21 10° WSW 21:38:35 69° NNW 21:41:51 10° NE
Cosmos 2297 4.1 21:35:26 10° S 21:40:44 41° ESE 21:46:05 10° NE
Cosmos 1378 Rocket 3.5 21:36:30 10° N 21:40:51 88° W 21:45:10 10° S
Cosmos 1606 3.2 21:38:18 10° NNW 21:42:13 62° W 21:46:04 10° S
Cosmos 1908 Rocket 3.8 21:37:58 10° SSW 21:42:22 76° W 21:46:51 10° N
Terra 3.9 21:40:39 10° E 21:42:52 13° ENE 21:45:05 10° NNE
Intercosmos 25 3.6 21:42:36 13° SSE 21:45:16 33° E 21:48:11 10° NNE
CZ-4B R/B 4.3 21:42:04 10° NE 21:46:15 27° E 21:49:14 15° SE
Cosmos 1862 3.6 21:43:50 10° SSW 21:47:54 75° W 21:52:00 10° N
Cosmos 1452 Rocket 4.0 21:45:13 10° SSW 21:50:26 65° WNW 21:55:43 10° NNE
MetOp-B 4.3 21:45:55 13° SSE 21:50:35 60° ENE 21:55:52 10° N
Cosmos 1184 Rocket 2.8 21:48:02 10° S 21:51:22 88° WNW 21:54:45 10° N
Cosmos 1238 Rocket 2.7 21:48:50 10° NNW 21:52:11 74° W 21:56:11 10° S
EO 1 Delta rocket 4.2 21:46:33 10° N 21:52:37 88° E 21:57:32 10° S
H-2A R/B 3.6 21:51:51 14° ESE 21:54:59 23° ENE 21:59:01 10° NNE
deb Chang Zheng 4 3.7 21:52:29 10° NNE 21:56:56 82° WNW 22:01:23 10° SSW
Abrixas 3.5 21:54:23 10° SSW 21:56:59 26° SE 21:57:04 26° SE
Nimbus 7 Rocket 4.4 21:51:14 10° NNE 21:57:13 80° ESE 22:03:13 10° SSW
SPOT 5 3.1 21:53:16 12° SSE 21:58:14 84° ENE 22:03:38 10° NNW
Cosmos 2341 Rocket 4.1 21:52:41 10° S 21:59:00 86° W 22:05:18 10° N
Cosmos 1242 Rocket 2.5 21:59:19 10° N 22:03:01 90° WSW 22:05:36 19° S
USA 245 3.6 22:03:11 25° SE 22:05:01 49° ENE 22:09:15 10° N
SL-8 Rocket 4.0 21:59:16 10° S 22:05:28 64° E 22:11:37 10° NNE
Lacrosse 5 3.3 22:10:52 18° ESE 22:10:52 18° ESE 22:13:18 10° ENE
YAOGAN 6 2.4 22:07:53 25° SSE 22:09:51 78° ENE 22:13:23 10° N
SPOT 1/Viking Rocket 3.7 22:06:51 20° SSE 22:10:23 62° ENE 22:15:33 10° N
Gbstr 26 Del rocket 4.2 22:05:39 10° NW 22:10:48 43° NNE 22:14:15 15° E
H-2A R/B 2.8 22:06:55 10° S 22:11:04 48° W 22:15:09 10° NNW
Cosmos 1408 4.0 22:09:17 10° SSW 22:12:43 39° WNW 22:16:10 10° N
ARGOS 3.3 22:09:19 21° SE 22:12:47 58° ENE 22:18:02 10° N
Timation 2 Rocket 4.0 22:08:41 10° NNW 22:14:39 70° WSW 22:19:07 18° SSE
Cosmos 2151 Rocket 3.8 22:14:02 22° SSE 22:16:45 53° E 22:21:10 10° NNE
Cosmos 1850 Rocket 4.3 22:16:08 10° NNW 22:21:26 69° WSW 22:25:08 20° S
BREEZE-M DEB (TANK) 3.4 22:14:38 10° WNW 22:26:20 65° SW 22:28:16 31° SSE
BREEZE-M DEB (TANK) 4.5 22:23:33 10° WNW 22:26:36 44° N 22:34:52 10° ENE
Cosmos 1825 4.4 22:27:25 10° SW 22:30:37 25° WNW 22:33:51 10° NNW
GPS 2-05 Rocket1 4.4 22:27:45 10° WSW 22:30:19 23° SSW 22:30:19 23° SSW
USA 229 DEB 3.8 22:26:19 10° NW 22:33:28 88° SW 22:37:41 27° SSE
USA 229 3.8 22:26:25 10° NW 22:33:35 89° SW 22:37:47 28° SSE
Okean 1 Rocket 4.0 22:33:27 28° ESE 22:33:55 29° E 22:37:48 10° NNE
Cosmos 864 Rocket 4.4 22:30:23 19° S 22:34:59 74° E 22:41:09 10° NNE
Meteor 1-20 Rocket 4.4 22:32:20 28° SSE 22:35:02 52° E 22:40:23 10° NNE
Timation 1 Rocket 4.4 22:31:53 13° S 22:37:11 60° ESE 22:43:05 10° NNE
NOSS 8 (E) 4.3 22:35:05 15° SSW 22:37:51 79° SE 22:41:35 10° NE
Cosmos 1833 Rocket 2.6 22:34:35 10° NNW 22:40:14 87° WSW 22:42:58 32° SSE
Cosmos 2366 rocket 4.0 22:41:56 16° S 22:47:08 85° W 22:53:31 10° N
Cosmos 2278 Rocket 4.0 22:42:15 10° WSW 22:47:19 32° NW 22:52:25 10° N
Cosmos 1331 Rocket 4.0 22:45:45 33° S 22:47:55 60° ESE 22:53:00 10° NNE
CZ-4 R/B 3.6 22:43:38 10° NNE 22:48:20 83° ESE 22:50:35 31° S
Okean 1 3.4 22:45:43 10° N 22:49:45 57° E 22:50:21 51° ESE
Okean 1-7 Rocket 4.1 22:45:38 10° N 22:49:54 42° ENE 22:50:37 39° ESE
Meteor 1-25 Rocket 4.2 22:49:12 23° S 22:52:58 87° E 22:58:49 10° N
Cosmos 1110 Rocket 3.9 22:53:35 26° SSW 22:56:37 82° ESE 23:01:51 10° NNE
DMSP B5D2-2 4.2 22:55:06 10° NNE 23:00:15 56° E 23:01:31 44° SSE
SL-08 RB Rocket 4.2 22:59:46 34° SSW 23:01:34 57° W 23:06:10 10° NNW
Cosmos 1812 2.6 22:58:06 10° N 23:01:59 83° W 23:02:27 67° S
Landsat 7 3.8 23:02:46 44° S 23:04:15 78° WSW 23:09:02 10° NNW
OAO 3 Rocket 4.4 23:00:39 10° WSW 23:03:42 28° SSW 23:03:42 28° SSW
Cosmos 2082 Rocket 3.0 23:00:43 10° NW 23:06:04 43° WSW 23:08:39 27° SSW
AVUM R/B 4.3 23:04:28 10° NW 23:07:46 39° WSW 23:07:47 39° WSW
CARTOSAT-1 3.4 23:09:54 64° SSE 23:10:33 89° ENE 23:14:53 10° NNW
Genesis I 4.2 23:12:04 36° ENE 23:12:04 36° ENE 23:14:43 10° NE
ATLAS 2AS CENTAUR R/B 4.3 23:05:01 10° NNW 23:12:11 32° NE 23:18:13 13° E
ISS -0.7 23:12:53 10° WNW 23:15:27 21° NNW 23:18:02 10° NE
Meteor 2-4 Rocket 4.3 23:13:11 10° N 23:18:19 40° ENE 23:19:17 37° E
Terra 1.8 23:18:59 56° S 23:19:57 78° WSW 23:24:44 10° NNW
Cosmos 1000 Rocket 4.5 23:14:12 10° N 23:20:27 72° E 23:22:21 47° SSE
NOSS 3-1 (C) 4.0 23:13:17 10° NW 23:20:50 78° NE 23:24:23 38° SE
Cosmos 1486 Rocket 3.9 23:18:33 10° NNW 23:23:55 85° WSW 23:25:00 58° S
Cosmos 1354 Rocket 4.3 23:19:22 10° NNW 23:24:32 52° ENE 23:25:26 47° E
Cosmos 2084 Rocket 4.4 23:24:26 10° NNW 23:28:00 33° NE 23:28:12 33° NE
USA 234 3.3 23:22:46 10° NE 23:29:09 55° SE 23:31:10 40° S
Cosmos 1315 Rocket 4.4 23:30:57 24° NE 23:30:57 24° NE 23:33:04 10° NNE
Meteor 1-13 Rocket 4.3 23:24:18 10° N 23:30:17 87° W 23:31:53 52° S
Spot 2 4.0 23:27:59 10° NNE 23:31:54 67° ENE 23:31:54 67° ENE
Lacrosse 5 rocket 1.7 23:33:05 53° NNE 23:33:05 53° NNE 23:36:06 10° NE
H-2A R/B 2.6 23:32:29 39° SSW 23:34:03 52° W 23:39:13 10° NNW
Cosmos 1892 Rocket 4.3 23:32:33 10° N 23:36:22 41° ENE 23:36:22 41° ENE
Spot 4 3.9 23:37:44 61° SSW 23:38:21 69° WSW 23:43:13 10° NNW
IGS 5A 4.0 23:38:16 50° WSW 23:38:23 50° W 23:42:27 10° NNW
Cosmos 1633 3.8 23:44:00 37° NNE 23:44:00 37° NNE 23:46:24 10° NNE
Okean 2 4.4 23:40:36 10° N 23:43:53 37° NE 23:43:53 37° NE
Meteor 1-11 Rocket 3.7 23:44:06 54° SSW 23:45:30 86° W 23:51:18 10° N
Cosmos 1302 Rocket 4.3 23:49:53 44° SW 23:51:25 65° WNW 23:56:42 10° NNE
Lacrosse 5 2.0 23:49:52 34° WSW 23:52:07 74° NW 23:57:14 10° NE
Cosmos 1025 Rocket 3.1 23:48:15 10° N 23:52:22 75° NW 23:52:22 75° NW
Cosmos 2369 Rocket 2.0 23:53:08 68° SE 23:53:22 69° ESE 23:58:57 10° NNE
